Location: Valdosta
(30.8330°N, 83.2790°W)
Time: 05:27:59
(UTC-04:00)

Amateur Radio Satellites - All Passes

Search period start: 28 August 2015 04:57
Search period end: 29 August 2015 04:57
Location: Valdosta, 30.8330°N, 83.2790°W

Satellite Date Start Highest point End Downlink Frequencies (MHz)
Time Altitude Azimuth
Cosmos 2499 28 Aug 05:20:46 05:28:42 61° 92° (E) 05:37:16 435.465 / 435.565
GONETS M04 28 Aug 05:23:21 05:31:05 34° 285° (WNW) 05:38:41
AO-7 28 Aug 05:29:31 05:37:49 75° 105° (ESE) 05:46:06 29.400- 29.500
JAS-2 28 Aug 05:51:40 05:57:10 24° 294° (WNW) 06:01:59 435.910
RS-15 28 Aug 05:55:03 06:02:02 16° 257° (WSW) 06:07:53 29.354- 29.394
O/OREOS (USA 219) 28 Aug 05:55:25 05:58:13 16° 61° (ENE) 06:01:12 437.305
VERMONT LUNAR 28 Aug 06:00:42 06:03:36 48° 335° (NNW) 06:06:30 437.305
HORYU 2 28 Aug 06:00:43 06:04:55 40° 286° (WNW) 06:09:02 437.375
MOZHAYETS 4 28 Aug 06:11:37 06:15:22 23° 265° (W) 06:19:00
CUBESAT XI-V 28 Aug 06:16:16 06:19:59 25° 73° (ENE) 06:23:48 437.345
Cubesat XI-IV 28 Aug 06:47:07 06:50:27 17° 93° (E) 06:54:01 437.490
PHONESAT 2.4 28 Aug 06:59:14 07:02:19 32° 145° (SE) 07:05:25 2401.200-2431.200
PRISM 28 Aug 07:00:23 07:01:22 11° 69° (ENE) 07:02:37 437.425
Cosmos 2499 28 Aug 07:16:05 07:22:34 23° 290° (WNW) 07:28:57 435.465 / 435.565
AO-7 28 Aug 07:24:10 07:29:56 20° 299° (WNW) 07:35:17 29.400- 29.500
CUTE-I 28 Aug 07:31:58 07:37:08 52° 100° (E) 07:42:19 437.470
O/OREOS (USA 219) 28 Aug 07:33:35 07:37:50 36° 255° (WSW) 07:42:00 437.305
STRAND 1 28 Aug 07:37:21 07:42:17 54° 75° (ENE) 07:47:16 437.568
VERMONT LUNAR 28 Aug 07:38:39 07:40:31 15° 351° (N) 07:42:21 437.305
CUBESAT XI-V 28 Aug 07:53:42 07:57:23 23° 265° (W) 08:00:56 437.345
BRITE-PL 28 Aug 08:08:21 08:12:26 22° 94° (E) 08:16:48 437.365/2234.400
Cubesat XI-IV 28 Aug 08:25:44 08:30:47 44° 287° (WNW) 08:35:47 437.490
AIST 1 28 Aug 08:26:02 08:28:03 14° 89° (E) 08:30:19
PRISM 28 Aug 08:32:31 08:36:28 43° 261° (W) 08:40:23 437.425
PHONESAT 2.4 28 Aug 08:37:00 08:40:11 36° 338° (NNW) 08:43:22 2401.200-2431.200
YUBILEINY 28 Aug 08:56:30 09:04:22 36° 75° (ENE) 09:12:21 435.215
GOMX 1 28 Aug 08:58:06 09:03:11 40° 97° (E) 09:08:21 467.674
CANX-2 28 Aug 09:03:43 09:06:05 15° 93° (E) 09:08:38 2200.000
CINEMA 3 28 Aug 09:13:39 09:15:24 12° 90° (E) 09:17:27 145.822/145.860
CUTE-I 28 Aug 09:13:41 09:16:50 16° 292° (WNW) 09:19:45 437.470
HO-68 28 Aug 09:15:33 09:21:39 31° 97° (E) 09:27:54 435.675
VERMONT LUNAR 28 Aug 09:16:01 09:17:43 14° 7° (N) 09:19:26 437.305
STRAND 1 28 Aug 09:19:25 09:21:52 13° 268° (W) 09:23:59 437.568
ISS 28 Aug 09:25:27 09:27:14 14° 127° (SE) 09:29:07 145.825
SEEDS 28 Aug 09:31:56 09:35:15 23° 95° (E) 09:38:38 437.485
DOVE 4 28 Aug 09:32:04 09:37:16 53° 99° (E) 09:42:25 437.250
Cosmos 2491 28 Aug 09:35:28 09:43:18 40° 89° (E) 09:51:17 435.465 / 435.565
BRITE-PL 28 Aug 09:45:53 09:51:01 40° 286° (WNW) 09:56:15 437.365/2234.400
COMPASS 1 28 Aug 10:00:21 10:04:16 40° 98° (E) 10:08:11 437.405
AIST 1 28 Aug 10:01:36 10:05:27 32° 281° (W) 10:09:15
AAUSAT CUBESAT 2 28 Aug 10:14:11 10:18:12 51° 99° (E) 10:22:12 437.432
PHONESAT 2.4 28 Aug 10:16:24 10:18:40 16° 355° (N) 10:20:55 2401.200-2431.200
TIGRISAT 28 Aug 10:17:21 10:19:16 13° 69° (ENE) 10:21:29 435.000
CUTE 1.7 + AOD 2 28 Aug 10:24:41 10:28:48 53° 284° (WNW) 10:32:53 437.475
ANTELSAT 28 Aug 10:31:14 10:34:29 20° 71° (ENE) 10:37:56 437.575/2403.000
GOMX 1 28 Aug 10:36:54 10:41:03 22° 289° (WNW) 10:45:02 467.674
CANX-2 28 Aug 10:38:20 10:42:06 31° 286° (WNW) 10:45:48 2200.000
AUBIESAT-1 28 Aug 10:48:00 10:52:21 39° 70° (ENE) 10:56:47 437.475
CINEMA 3 28 Aug 10:48:05 10:52:59 55° 285° (WNW) 10:57:45 145.822/145.860
M-CUBED/EXP-1 PRIME 28 Aug 10:49:01 10:53:34 49° 70° (ENE) 10:58:12 437.505
Oscar 11 28 Aug 10:50:02 10:54:17 57° 100° (E) 10:58:31 145.826/435.025
SO-50 28 Aug 10:50:13 10:50:39 10° 45° (NE) 10:51:22 436.795
VERMONT LUNAR 28 Aug 10:51:53 10:54:42 37° 23° (NNE) 10:57:32 437.305
YUBILEINY 28 Aug 10:53:10 11:01:13 40° 271° (W) 11:09:04 435.215
ISS 28 Aug 11:00:27 11:03:25 33° 319° (NW) 11:06:24 145.825
CUSAT 1 28 Aug 11:02:29 11:06:53 17° 69° (ENE) 11:12:01 437.405
HO-68 28 Aug 11:02:48 11:09:27 41° 291° (WNW) 11:16:00 435.675
CUBEBUG 2 28 Aug 11:05:58 11:10:41 80° 283° (WNW) 11:15:14 437.445
DELFI C3 28 Aug 11:07:30 11:11:26 59° 100° (E) 11:15:20 145.870
SEEDS 28 Aug 11:07:47 11:10:55 20° 288° (WNW) 11:13:56 437.485
HUMSAT D 28 Aug 11:08:04 11:11:03 19° 94° (E) 11:14:07 437.325/437.525
DOVE 4 28 Aug 11:11:23 11:14:35 16° 291° (WNW) 11:17:31 437.250
Cosmos 2504 28 Aug 11:14:37 11:22:11 36° 75° (ENE) 11:29:31 435.465 / 435.565
UNISAT 6 28 Aug 11:20:42 11:25:18 75° 77° (ENE) 11:30:01 437.425
UWE-3 28 Aug 11:21:38 11:26:14 68° 283° (WNW) 11:30:40 435.000/436.395/437.385
ZACube-1 28 Aug 11:24:00 11:28:32 87° 282° (WNW) 11:32:55 437.345
FUNcube-1 28 Aug 11:31:20 11:35:50 73° 284° (WNW) 11:40:11 145.935
Cosmos 2491 28 Aug 11:32:23 11:40:14 35° 285° (WNW) 11:47:53 435.465 / 435.565
COMPASS 1 28 Aug 11:37:58 11:39:36 12° 290° (WNW) 11:40:58 437.405
POLYITAN 1 28 Aug 11:41:40 11:45:38 41° 75° (ENE) 11:49:42 437.675
POPSAT HIP 1 28 Aug 11:45:52 11:49:54 45° 75° (ENE) 11:53:59 437.405
DUCHIFAT 1 28 Aug 11:50:01 11:54:04 49° 75° (ENE) 11:58:10 145.980
ESTCUBE 1 28 Aug 11:50:14 11:52:40 15° 93° (E) 11:55:19 437.505/2401.250
TIGRISAT 28 Aug 11:51:08 11:55:36 49° 261° (W) 12:00:09 435.000
PHONESAT 2.4 28 Aug 11:54:45 11:57:19 20° 12° (NNE) 11:59:55 2401.200-2431.200
QB50P2 28 Aug 12:01:33 12:05:46 78° 78° (ENE) 12:10:03 145.880/145.840
NANOSAT C BR1 28 Aug 12:05:50 12:10:02 84° 78° (ENE) 12:14:18 145.865
ANTELSAT 28 Aug 12:06:56 12:11:03 31° 264° (W) 12:15:12 437.575/2403.000
DX 1 28 Aug 12:11:14 12:15:35 65° 101° (E) 12:19:55 434.975-435.025
50 SAT 28 Aug 12:15:00 12:18:47 52° 100° (E) 12:22:31 437.505
BUGSAT 1 28 Aug 12:15:34 12:19:32 61° 77° (ENE) 12:23:34 437.445
AISAT 28 Aug 12:16:58 12:21:16 46° 99° (E) 12:25:36 437.250
QB50P1 28 Aug 12:17:47 12:21:59 67° 259° (W) 12:26:13 145.935-145.965
AUBIESAT-1 28 Aug 12:24:00 12:27:10 17° 263° (W) 12:30:09 437.475
M-CUBED/EXP-1 PRIME 28 Aug 12:25:57 12:28:34 14° 264° (W) 12:30:58 437.505
SO-50 28 Aug 12:27:02 12:31:58 88° 243° (WSW) 12:36:43 436.795
VERMONT LUNAR 28 Aug 12:28:35 12:31:05 24° 216° (SW) 12:33:34 437.305
PCSat 28 Aug 12:30:03 12:34:41 29° 57° (ENE) 12:39:23 145.827
UKube-1 28 Aug 12:30:15 12:34:37 82° 285° (WNW) 12:38:57 .
CUBEBUG 1 28 Aug 12:30:17 12:34:20 36° 98° (E) 12:38:27 437.445
DANDE 28 Aug 12:40:38 12:48:09 67° 81° (E) 12:56:39 436.750
CUSAT 1 28 Aug 12:42:23 12:50:13 87° 263° (W) 12:58:29 437.405
SPROUT 28 Aug 12:43:10 12:45:12 13° 92° (E) 12:47:28 437.525
HUMSAT D 28 Aug 12:43:15 12:46:46 25° 287° (WNW) 12:50:09 437.325/437.525
VELOX 1 28 Aug 12:46:16 12:50:44 80° 284° (WNW) 12:55:12 145.980
Cosmos 2504 28 Aug 13:06:44 13:14:23 38° 272° (W) 13:21:28 435.465 / 435.565
POLYITAN 1 28 Aug 13:20:10 13:21:47 12° 269° (W) 13:23:08 437.675
POPSAT HIP 1 28 Aug 13:25:13 13:26:04 10° 269° (W) 13:26:36 437.405
ESTCUBE 1 28 Aug 13:25:33 13:29:41 37° 286° (WNW) 13:33:48 437.505/2401.250
PHONESAT 2.4 28 Aug 13:32:12 13:35:36 68° 28° (NNE) 13:39:00 2401.200-2431.200
GONETS M04 28 Aug 13:45:35 13:49:31 14° 66° (ENE) 13:54:12
AISAT 28 Aug 13:55:26 13:57:29 13° 291° (WNW) 13:59:18 437.250
TISAT 1 28 Aug 14:01:06 14:05:22 70° 101° (E) 14:09:36 437.305
CUBEBUG 1 28 Aug 14:07:48 14:10:25 15° 290° (WNW) 14:12:52 437.445
PCSat 28 Aug 14:13:23 14:18:03 29° 252° (WSW) 14:22:37 145.827
JAS-2 28 Aug 14:13:35 14:17:00 14° 62° (ENE) 14:21:01 435.910
SPROUT 28 Aug 14:17:25 14:21:27 37° 286° (WNW) 14:25:26 437.525
JUGNU 28 Aug 14:18:54 14:22:31 17° 166° (SSE) 14:26:12 437.505
Oscar 19 28 Aug 14:22:22 14:27:31 89° 249° (WSW) 14:32:44 437.125/150
DANDE 28 Aug 14:25:12 14:31:01 22° 270° (W) 14:36:50 436.750
CUSAT 1 28 Aug 14:28:07 14:32:11 14° 273° (W) 14:35:40 437.405
Gurwin Techsat 1B 28 Aug 14:32:38 14:37:14 32° 72° (ENE) 14:41:56 435.225
BEESAT 28 Aug 14:36:56 14:40:44 24° 96° (E) 14:44:37 436.000
SWISSCUBE 28 Aug 15:01:38 15:06:15 52° 100° (E) 15:10:54 437.505
PHONESAT 2.4 28 Aug 15:11:06 15:13:15 15° 219° (SW) 15:15:20 2401.200-2431.200
ITAMSAT 1 28 Aug 15:12:40 15:17:48 68° 76° (ENE) 15:22:57 435.822/435.867
Cosmos 2499 28 Aug 15:21:43 15:25:59 15° 65° (ENE) 15:30:47 435.465 / 435.565
SRMSAT 28 Aug 15:22:47 15:24:49 12° 162° (SSE) 15:27:00 437.500
BEESAT 3 28 Aug 15:34:27 15:37:18 19° 111° (ESE) 15:40:17 437.485
ITUPSAT 1 28 Aug 15:38:08 15:42:52 67° 283° (WNW) 15:47:34 437.325
GONETS M04 28 Aug 15:38:52 15:47:43 89° 265° (W) 15:56:34
BEESAT 2 28 Aug 15:41:02 15:43:34 17° 111° (ESE) 15:46:18 435.950
RS-15 28 Aug 15:46:54 15:54:10 22° 105° (ESE) 16:02:14 29.354- 29.394
JAS-2 28 Aug 15:53:39 16:01:01 85° 76° (ENE) 16:08:55 435.910
JUGNU 28 Aug 16:06:12 16:11:00 26° 174° (S) 16:15:47 437.505
Gurwin Techsat 1B 28 Aug 16:12:54 16:17:14 24° 265° (W) 16:21:26 435.225
BEESAT 28 Aug 16:14:33 16:18:30 26° 289° (WNW) 16:22:22 436.000
AO-7 28 Aug 16:22:06 16:30:17 63° 70° (ENE) 16:38:31 29.400- 29.500
STARS 28 Aug 16:40:35 16:44:55 51° 100° (E) 16:49:14 437.465
SWISSCUBE 28 Aug 16:41:35 16:43:44 13° 292° (WNW) 16:45:34 437.505
KKS-1 28 Aug 16:49:28 16:53:56 68° 284° (WNW) 16:58:23 437.445
HORYU 2 28 Aug 16:52:52 16:57:22 89° 256° (WSW) 17:01:53 437.375
ITAMSAT 1 28 Aug 16:57:18 16:57:51 10° 270° (W) 16:57:56 435.822/435.867
SRMSAT 28 Aug 17:08:57 17:13:27 23° 170° (S) 17:17:59 437.500
BEESAT 3 28 Aug 17:11:37 17:15:04 26° 304° (NW) 17:18:30 437.485
Cosmos 2499 28 Aug 17:11:49 17:20:30 85° 265° (W) 17:28:33 435.465 / 435.565
BEESAT 2 28 Aug 17:17:46 17:21:24 30° 303° (WNW) 17:25:02 435.950
AIST 2 28 Aug 17:27:29 17:31:36 55° 115° (ESE) 17:35:45 435.215
ISS 28 Aug 17:32:29 17:34:46 18° 36° (NE) 17:37:06 145.825
GONETS M04 28 Aug 17:39:44 17:43:37 13° 278° (W) 17:46:42
JAS-2 28 Aug 17:42:58 17:47:02 14° 273° (W) 17:50:38 435.910
JUGNU 28 Aug 17:54:40 17:59:31 27° 184° (S) 18:04:20 437.505
RS-15 28 Aug 17:54:43 18:05:37 75° 300° (WNW) 18:16:51 29.354- 29.394
Cubesat XI-IV 28 Aug 18:04:14 18:07:34 18° 69° (ENE) 18:11:08 437.490
MOZHAYETS 4 28 Aug 18:11:10 18:15:41 64° 284° (WNW) 18:20:10
AO-7 28 Aug 18:17:15 18:23:38 23° 266° (W) 18:29:36 29.400- 29.500
STARS 28 Aug 18:19:27 18:20:57 11° 291° (WNW) 18:22:10 437.465
CUTE-I 28 Aug 18:48:25 18:53:31 50° 74° (ENE) 18:58:40 437.470
SRMSAT 28 Aug 18:57:08 19:02:07 28° 180° (S) 19:07:07 437.500
ISS 28 Aug 19:08:19 19:11:13 30° 230° (SW) 19:14:05 145.825
AIST 2 28 Aug 19:08:54 19:10:33 12° 311° (NW) 19:11:59 435.215
Cosmos 2499 28 Aug 19:09:31 19:12:30 12° 279° (W) 19:14:39 435.465 / 435.565
HO-68 28 Aug 19:41:52 19:44:30 13° 61° (ENE) 19:47:39 435.675
Cubesat XI-IV 28 Aug 19:42:16 19:47:22 45° 261° (W) 19:52:27 437.490
JUGNU 28 Aug 19:44:06 19:48:00 18° 193° (SSW) 19:51:50 437.505
STRAND 1 28 Aug 19:53:48 19:58:07 28° 96° (E) 20:02:33 437.568
CUBESAT XI-V 28 Aug 19:54:38 19:59:12 60° 284° (WNW) 20:03:47 437.345
Cosmos 2491 28 Aug 19:55:01 19:58:40 14° 65° (ENE) 20:03:05 435.465 / 435.565
O/OREOS (USA 219) 28 Aug 20:00:49 20:05:08 48° 105° (ESE) 20:09:32 437.305
GOMX 1 28 Aug 20:02:15 20:05:19 20° 70° (ENE) 20:08:39 467.674
RS-15 28 Aug 20:13:05 20:20:32 19° 325° (NW) 20:27:37 29.354- 29.394
AIST 1 28 Aug 20:13:59 20:17:52 33° 79° (E) 20:21:48
PRISM 28 Aug 20:19:59 20:23:45 36° 98° (E) 20:27:33 437.425
CUTE-I 28 Aug 20:30:46 20:33:55 15° 268° (W) 20:36:46 437.470
DOVE 4 28 Aug 20:32:57 20:36:35 26° 71° (ENE) 20:40:29 437.250
SRMSAT 28 Aug 20:46:13 20:50:48 23° 190° (S) 20:55:22 437.500
COMPASS 1 28 Aug 20:47:33 20:49:48 15° 71° (ENE) 20:52:16 437.405
BRITE-PL 28 Aug 20:51:48 20:55:54 53° 261° (W) 21:00:13 437.365/2234.400
AAUSAT CUBESAT 2 28 Aug 21:00:30 21:03:14 18° 72° (ENE) 21:06:07 437.432
CUTE 1.7 + AOD 2 28 Aug 21:11:41 21:15:50 51° 76° (ENE) 21:20:01 437.475
HO-68 28 Aug 21:24:15 21:31:24 87° 75° (ENE) 21:38:37 435.675
CANX-2 28 Aug 21:24:57 21:29:15 87° 78° (ENE) 21:33:34 2200.000
STRAND 1 28 Aug 21:33:03 21:37:14 25° 289° (WNW) 21:41:18 437.568
GOMX 1 28 Aug 21:39:35 21:43:18 27° 265° (W) 21:47:07 467.674
Oscar 11 28 Aug 21:40:01 21:43:22 23° 72° (ENE) 21:46:50 145.826/435.025
O/OREOS (USA 219) 28 Aug 21:42:52 21:44:55 12° 301° (WNW) 21:46:45 437.305
CINEMA 3 28 Aug 21:43:49 21:48:19 72° 76° (ENE) 21:53:04 145.822/145.860
Cosmos 2491 28 Aug 21:48:08 21:56:55 89° 79° (E) 22:05:44 435.465 / 435.565
YUBILEINY 28 Aug 21:50:00 21:58:15 50° 91° (E) 22:06:40 435.215
DELFI C3 28 Aug 21:50:11 21:52:49 17° 72° (ENE) 21:55:35 145.870
AIST 1 28 Aug 21:52:53 21:55:16 14° 271° (W) 21:57:25
SEEDS 28 Aug 21:53:01 21:57:13 59° 260° (W) 22:01:26 437.485
PRISM 28 Aug 21:56:51 21:58:54 13° 290° (WNW) 22:00:45 437.425
CUBEBUG 2 28 Aug 21:58:24 22:02:40 43° 75° (ENE) 22:07:08 437.445
DOVE 4 28 Aug 22:10:54 22:14:20 21° 267° (W) 22:17:49 437.250
UWE-3 28 Aug 22:12:50 22:17:10 49° 75° (ENE) 22:21:39 435.000/436.395/437.385
ZACube-1 28 Aug 22:14:18 22:18:24 37° 74° (ENE) 22:22:37 437.345
FUNcube-1 28 Aug 22:21:13 22:25:27 43° 75° (ENE) 22:29:47 145.935
COMPASS 1 28 Aug 22:21:21 22:25:13 34° 263° (W) 22:29:02 437.405
AAUSAT CUBESAT 2 28 Aug 22:35:00 22:38:39 27° 264° (W) 22:42:13 437.432
SRMSAT 28 Aug 22:37:00 22:39:26 12° 197° (SSW) 22:41:44 437.500
50 SAT 28 Aug 22:54:34 22:56:35 14° 71° (ENE) 22:58:46 437.505
DX 1 28 Aug 23:01:55 23:05:31 27° 72° (ENE) 23:09:14 434.975-435.025
AISAT 28 Aug 23:10:08 23:13:23 21° 71° (ENE) 23:16:46 437.250
Oscar 11 28 Aug 23:15:57 23:19:28 23° 265° (W) 23:22:52 145.826/435.025
HO-68 28 Aug 23:17:14 23:20:04 12° 270° (W) 23:22:14 435.675
UNISAT 6 28 Aug 23:19:02 23:22:40 24° 95° (E) 23:26:20 437.425
UKube-1 28 Aug 23:19:41 23:23:41 40° 74° (ENE) 23:27:44 .
CUBEBUG 1 28 Aug 23:22:25 23:24:56 16° 71° (ENE) 23:27:38 437.445
DELFI C3 28 Aug 23:24:15 23:27:42 26° 264° (W) 23:31:05 145.870
HUMSAT D 28 Aug 23:28:17 23:32:34 76° 259° (WSW) 23:36:55 437.325/437.525
POLYITAN 1 28 Aug 23:35:02 23:35:55 11° 91° (E) 23:37:06 437.675
CUBEBUG 2 28 Aug 23:37:20 23:39:39 13° 269° (W) 23:41:43 437.445
Cosmos 2504 28 Aug 23:38:04 23:44:32 30° 86° (E) 23:51:35 435.465 / 435.565
VELOX 1 28 Aug 23:38:25 23:42:34 44° 74° (ENE) 23:46:46 145.980
POPSAT HIP 1 28 Aug 23:38:31 23:39:58 12° 91° (E) 23:41:42 437.405
DUCHIFAT 1 28 Aug 23:41:56 23:43:40 13° 92° (E) 23:45:38 145.980
YUBILEINY 28 Aug 23:48:00 23:55:25 29° 287° (WNW) 00:02:37 435.215
TIGRISAT 28 Aug 23:48:26 23:52:54 52° 100° (E) 23:57:15 435.000
Cosmos 2491 28 Aug 23:48:52 23:52:52 13° 278° (W) 23:56:05 435.465 / 435.565
ZACube-1 28 Aug 23:52:12 23:54:55 15° 268° (W) 23:57:26 437.345
UWE-3 28 Aug 23:52:21 23:54:03 11° 270° (W) 23:55:26 435.000/436.395/437.385
QB50P2 28 Aug 23:53:09 23:56:13 20° 94° (E) 23:59:25 145.880/145.840
NANOSAT C BR1 28 Aug 23:56:54 00:00:04 21° 95° (E) 00:03:20 145.865
FUNcube-1 28 Aug 23:59:53 00:02:01 13° 269° (W) 00:03:54 145.935
ANTELSAT 29 Aug 00:03:56 00:08:31 86° 102° (ESE) 00:12:58 437.575/2403.000
BUGSAT 1 29 Aug 00:04:29 00:06:43 14° 93° (E) 00:09:10 437.445
QB50P1 29 Aug 00:08:36 00:12:20 29° 97° (E) 00:16:06 145.935-145.965
AUBIESAT-1 29 Aug 00:08:48 00:12:41 67° 105° (ESE) 00:16:16 437.475
M-CUBED/EXP-1 PRIME 29 Aug 00:10:39 00:14:38 90° 103° (ESE) 00:18:17 437.505
ESTCUBE 1 29 Aug 00:19:09 00:23:39 80° 258° (WSW) 00:28:08 437.505/2401.250
50 SAT 29 Aug 00:27:19 00:30:51 31° 263° (W) 00:34:22 437.505
DX 1 29 Aug 00:38:39 00:41:47 19° 265° (W) 00:44:47 434.975-435.025
AISAT 29 Aug 00:46:09 00:49:49 25° 264° (W) 00:53:26 437.250
TISAT 1 29 Aug 00:48:19 00:51:42 25° 72° (ENE) 00:55:11 437.305
RS-15 29 Aug 00:51:45 00:59:39 21° 37° (NE) 01:08:20 29.354- 29.394
UNISAT 6 29 Aug 00:55:41 00:59:22 24° 289° (WNW) 01:02:52 437.425
CUBEBUG 1 29 Aug 00:57:09 01:01:03 33° 262° (W) 01:04:56 437.445
UKube-1 29 Aug 00:58:03 01:00:02 12° 268° (W) 01:01:45 .
SPROUT 29 Aug 01:05:30 01:09:46 80° 76° (ENE) 01:14:04 437.525
POLYITAN 1 29 Aug 01:07:57 01:12:06 46° 285° (WNW) 01:16:12 437.675
POPSAT HIP 1 29 Aug 01:12:00 01:16:04 42° 286° (WNW) 01:20:06 437.405
DUCHIFAT 1 29 Aug 01:15:39 01:19:39 39° 286° (WNW) 01:23:37 145.980
VELOX 1 29 Aug 01:17:41 01:19:23 12° 268° (W) 01:20:47 145.980
TIGRISAT 29 Aug 01:27:39 01:29:11 11° 292° (WNW) 01:30:27 435.000
QB50P2 29 Aug 01:28:29 01:32:05 26° 287° (WNW) 01:35:35 145.880/145.840
Cosmos 2504 29 Aug 01:28:57 01:36:26 45° 282° (WNW) 01:44:21 435.465 / 435.565
NANOSAT C BR1 29 Aug 01:32:19 01:35:50 24° 288° (WNW) 01:39:16 145.865
BEESAT 3 29 Aug 01:34:35 01:38:10 31° 57° (ENE) 01:41:45 437.485
BUGSAT 1 29 Aug 01:38:25 01:42:18 34° 286° (WNW) 01:46:08 437.445
BEESAT 29 Aug 01:39:12 01:41:56 16° 69° (ENE) 01:44:53 436.000
BEESAT 2 29 Aug 01:41:37 01:45:07 28° 56° (ENE) 01:48:36 435.950
QB50P1 29 Aug 01:45:04 01:47:59 17° 289° (WNW) 01:50:44 145.935-145.965
CUSAT 1 29 Aug 01:45:20 01:48:26 40° 284° (WNW) 01:52:24 437.405
DANDE 29 Aug 01:48:52 01:51:44 73° 279° (W) 01:55:23 436.750
SWISSCUBE 29 Aug 02:03:03 02:07:14 32° 73° (ENE) 02:11:30 437.505
TISAT 1 29 Aug 02:24:21 02:27:26 19° 265° (W) 02:30:25 437.305
SO-50 29 Aug 02:35:42 02:40:25 75° 298° (WNW) 02:45:19 436.795
ITUPSAT 1 29 Aug 02:39:15 02:44:01 75° 76° (ENE) 02:48:48 437.325
Oscar 19 29 Aug 02:39:36 02:44:39 51° 99° (E) 02:49:42 437.125/150
GONETS M04 29 Aug 02:39:41 02:45:13 20° 85° (E) 02:51:14
Gurwin Techsat 1B 29 Aug 02:54:54 02:58:36 20° 94° (E) 03:02:29 435.225
RS-15 29 Aug 03:02:34 03:14:34 77° 61° (ENE) 03:26:53 29.354- 29.394
PCSat 29 Aug 03:05:27 03:10:50 80° 113° (ESE) 03:16:16 145.827
JAS-2 29 Aug 03:13:17 03:16:44 15° 87° (E) 03:20:23 435.910
BEESAT 3 29 Aug 03:13:30 03:15:50 15° 250° (WSW) 03:17:59 437.485
BEESAT 29 Aug 03:14:58 03:19:29 41° 261° (W) 03:23:58 436.000
BEESAT 2 29 Aug 03:20:14 03:22:57 17° 249° (WSW) 03:25:29 435.950
ITAMSAT 1 29 Aug 03:31:18 03:36:04 38° 98° (E) 03:40:53 435.822/435.867
AIST 2 29 Aug 03:32:30 03:36:39 81° 244° (WSW) 03:40:44 435.215
STARS 29 Aug 03:32:42 03:36:06 23° 72° (ENE) 03:39:37 437.465
SWISSCUBE 29 Aug 03:41:40 03:45:10 19° 266° (W) 03:48:29 437.505
KKS-1 29 Aug 03:42:00 03:46:19 54° 75° (ENE) 03:50:41 437.445
Cosmos 2499 29 Aug 03:53:01 03:56:02 13° 81° (E) 03:59:53 435.465 / 435.565
Oscar 19 29 Aug 04:20:36 04:23:38 15° 292° (WNW) 04:26:24 437.125/150
AO-7 29 Aug 04:30:47 04:37:33 29° 96° (E) 04:44:33 29.400- 29.500
GONETS M04 29 Aug 04:32:47 04:41:24 66° 278° (W) 04:50:03
Gurwin Techsat 1B 29 Aug 04:33:49 04:38:44 38° 287° (WNW) 04:43:35 435.225
HORYU 2 29 Aug 04:50:06 04:53:49 26° 96° (E) 04:57:35 437.375
PCSat 29 Aug 04:52:48 04:54:59 12° 311° (NW) 04:56:51 145.827
